Back to catalog

STARLINK-5698

AliveCommunicationsVLEO
NORAD 55623·PAYLOAD·🇺🇸 United States

Launched Feb 12, 2023 from Cape Canaveral Space Force Station

Loading…

Next Passes (next 24 hours)

TLE

FreshSource: CelesTrak SupGP

Epoch: Sep 14, 2026, 13:28 UTC

1 55623C 23020BG  26257.56159722 -.00016236  00000+0 -58812-3 0  2570
2 55623  43.0041   7.6319 0001598 278.6703 101.9329 15.27583318    16

Track STARLINK-5698 in real time with AllMySat

Download on the App Store